Regional Weather Roundup
Issued by NWS Charleston, SC

Current Version | Previous Version | Graphics & Text | Print | Product List | Glossary On
Versions: 1 2 3 4 5 6 7 8 9 10 11 12 13 14 15 16 17 18 19 20 21 22 23 24 25 26 27 28 29 30 31 32 33 34 35 36 37 38 39 40 41 42 43 44 45 46 47 48 49 50
000 ASUS42 KCHS 250413 RWRCHS REGIONAL WEATHER ROUNDUP NATIONAL WEATHER SERVICE CHARLESTON SC 1200 AM EDT WED MAY 25 2016 NOTE: "FAIR" INDICATES FEW OR NO CLOUDS BELOW 12,000 FEET WITH NO SIGNIFICANT WEATHER AND/OR OBSTRUCTIONS TO VISIBILITY. NOT ALL STATIONS ARE QUALITY CONTROLLED. USE DATA WITH CAUTION... ESPECIALLY DEWPOINT OBSERVATIONS. SCZ027-030-031-034>040-042>050-250500- ...SOUTHEAST SOUTH CAROLINA... CITY SKY/WX TMP DP RH WIND PRES REMARKS N CHARLESTON CLEAR 69 62 78 CALM 30.19R WATERFRONT PRK N/A 74 66 75 VRB3 30.17R MOUNT PLEASANT FAIR 64 63 94 CALM 30.19S JOHNS ISLAND FAIR 68 63 83 CALM 30.19F PINOPOLIS N/A 72 63 73 VRB2 30.10S MONCKS CORNER FAIR 61 57 88 CALM 30.19S SUMMERVILLE FAIR 66 63 88 CALM 30.20S BEAUFORT MCAS PTCLDY 74 67 78 CALM 30.19R BEAUFORT ARPT FAIR 72 64 78 CALM 30.19R HILTON HEAD IS CLOUDY 73 68 83 S6 30.19S WALTERBORO CLEAR 70 68 94 CALM 30.20R ALLENDALE FAIR 70 64 83 CALM 30.18R ...SOUTHERN MIDLANDS AND PEE DEE... CITY SKY/WX TMP DP RH WIND PRES REMARKS GEORGETOWN FAIR 59 55 88 CALM 30.21R KINGSTREE FAIR 66 57 72 CALM 30.19S ORANGEBURG CLEAR 69 63 81 S3 30.18S BARNWELL FAIR 73 70 88 CALM 30.19R AIKEN FAIR 63 55 77 SE8 30.20S MANNING FAIR 70 63 78 S6 30.19R COLUMBIA CLEAR 67 60 78 CALM 30.16R SUMTER CLEAR 68 61 76 S3 30.15S FLORENCE CLEAR 68 58 70 S3 30.18S MYRTLE BEACH CLEAR 64 54 68 CALM 30.22R N MYRTLE BEACH CLEAR 68 60 75 SW7 30.19R $$ GAZ063-065-086>088-099>101-113>116-118-119-134>141-150-250500- ...SOUTHEAST GEORGIA... CITY SKY/WX TMP DP RH WIND PRES REMARKS SAVANNAH ARPT MOCLDY 71 65 81 S3 30.19R HUNTER AAF MOCLDY 72 69 89 S3 30.16S FORT STEWART PTCLDY 68 64 88 CALM 30.17R STATESBORO MOCLDY 72 68 88 CALM 30.19S SYLVANIA PTCLDY 73 67 82 CALM 30.19S CLAXTON MOCLDY 67 65 93 CALM 30.18S ...CSRA...CENTRAL AND FAR SOUTHEAST GEORGIA... CITY SKY/WX TMP DP RH WIND PRES REMARKS THOMSON CLEAR 64 62 96 CALM 30.21S AUGUSTA-BUSH PTCLDY 63 61 93 CALM 30.16R AUGUSTA-DANIEL CLEAR 73 62 68 E8 30.17S SWAINSBORO FAIR 70 61 73 S8 30.19R VIDALIA CLEAR 70 63 78 CALM 30.19R EASTMAN FAIR 62 62 100 CALM 30.20S HAZLEHURST FAIR 73 60 64 CALM 30.17S ALMA CLEAR 68 60 75 SE3 30.18S WAYCROSS PTCLDY 73 62 69 S6 30.18S JESUP FAIR 63 61 94 CALM 30.19S BAXLEY FAIR 70 63 78 CALM 30.18S BRUNSWICK PTCLDY 73 68 83 CALM 30.20R SAINT SIMONS CLOUDY 76 65 68 S8 30.19R $$ SCZ027-028-034-036>038-045-046-048>050-GAZ119-141-250500- ...LAKE AND SUPPLEMENTAL COASTAL OBSERVATIONS... STATION/POSITION TIME TEMP WIND PRES WAVE SWELL AIR SEA DIR/SP/G HT/PER HT/PER/DIR (UTC) (F) (DEG/KT/KT) (MB) (FT/S) (FT/S/D) WINYAH BAY NOT AVBL LAKE MURRAY 0300 71 CALM 1021.0R ACE BASIN NERRS NOT AVBL FORT PULASKI 0300 75 76 160/ 4/ 6 1022.4R SAPELO ISLAND 0300 75 170/ 7 1022.0R $$ ANZ835-935-AMZ111-154-330-350-352-354-370-450-454-472-250500- ...C-MAN AND BUOY OBSERVATIONS... STATION/POSITION TIME TEMP WIND PRES WAVE SWELL AIR SEA DIR/SP/G HT/PER HT/PER/DIR (UTC) (F) (DEG/KT/KT) (MB) (FT/S) (FT/S/D) BUOY 41004 0350 76 76 190/ 8/ 8 1022.2R 2/ 9 2/ 9 BUOY 41008 0350 76 76 170/ 8/ 10 1022.2R 2/ 9 2/110/ 9 FOLLY BEACH CMAN 0300 75 180/ 10/ 10 1022.4R CAPERS NEARSHORE 0308 75 74 190/ 10/ 14 1022.0R FRIPP NEARSHORE 0308 75 75 170/ 8/ 10 1021.5R STATION/POSITION TIME TEMP WIND PRES WAVE SWELL AIR SEA DIR/SP/G HT/PER HT/PER/DIR (UTC) (F) (DEG/KT/KT) (MB) (FT/S) (FT/S/D) 5E ST. MARYS GA 0321 78 N/A 2/ 9 FRYING PAN BUOY 0300 75 77 210/ 12/ 16 1021.6R BUOY 41025 0350 72 79 240/ 14/ 16 1021.2R 4/ 9 2/100/ 9 CAPE LOOKOUT NC 0300 71 240/ 8/ 10 1021.0R BUOY 41002 0350 73 78 360/ 2/ 6 1022.9R 5/10 5/ 40/10 BUOY 41010 0320 77 78 80/ 10/ 12 1022.5R ST AUGUSTINE FL 0400 78 80 150/ 11/ 13 1023.4R $$

USA.gov is the U.S. government's official web portal to all federal, state and local government web resources and services.